Погода в Симферополе

Хотите узнать прогноз погоды в Симферополе? Тогда Вам сюда: Погода в Симферополе

Поиск расширенной информации на нашем сайте:

Полезная информация:

Новости сайта



02.01.2020
Опубликован Долгосрочный прогноз погоды по городам России и ближнего зарубежья на январь 2020 года.
Карты: Прогноз на январь и февраль 2020 года, Сравнение прогнозируемой аномалии приземной температуры воздуха на январь 2020 года по разным моделям.




Погода в Симферополе - сегодня

Время (UTC), дата Ветер
(°,м/с) 
Видим.   Явления Облачность Т
(°С)
Тd
(°С)
f(%) Тe
(°С)
Pmin
(гПа)
dP
(гПа)
Po
(мм)
O2
(г/м3)
Тmin Tmax R s Состояние
почвы
15 02.07.20 200 (Ю) 2{12}  10 км  {гроза, ливн. осадки}  9/0 верхняя 
[Ci sp]
+25.8 +18.5 64 +41  1011.7  -1  743  269         
18 02.07.20 060 (СВ) 10 км  {гроза, ливн. осадки}  8/1 1000 м кучево-дожд., верхняя 
[Cb cap|Ci fib]
+24.2 +19.7 76 +43  1011.8  743  270    +32.3     
21 02.07.20 110 (В) 10 км    3/0 верхняя 
[Ci fib]
+21.9 +19.1 84 +39  1011.9  -0.1  743  273           
00 03.07.20 120 (ЮВ) 10 км    ясно 
+20.5 +17.5 83 +34  1011.3  -0.7  743  274           
03 03.07.20 100 (В) 10 км    1/0 верхняя 
[Ci fib]
+20 +16.6 81 +32  1011.3  743  275  +18.9         
06 03.07.20 060 (СВ) 10 км    ясно 
+28.1 +19.1 58 +45  1010.6  -0.1  743  267  +18.9         
09 03.07.20 050 (СВ) 10 км    1/1 1500 м 
[Cu med, cong]
+31.8 +17.7 43 +46  1010  -0.4  742  264           
12 03.07.20 070 (В) 6{10}  10 км    4/4 1500 м кучево-дожд. 
[Cb calv]
+34 +17.7 38 +48  1008.8  -1  742  262           
15 03.07.20 090 (В) 10 км    5/1 1000 м кучево-дожд., верхняя 
[Cb calv|Ci fib]
+33.3 +16.7 37 +45  1008  -0.9  741  263           
18 03.07.20 150 (ЮВ) 10 км    ясно 
+28.4 +20.2 61 +48  1009.1  0.8  742  266    +34.4       
21 03.07.20 190 (Ю) 10 км    ясно 
+23.9 +20 79 +43  1010.1  0.7  742  270           
00 04.07.20 140 (ЮВ) 10 км    ясно 
+23.1 +18.9 77 +40  1009.8  -0.4  742  271           
03 04.07.20 120 (ЮВ) 10 км    ясно 
+21.4 +15.9 71 +32  1010.2  0.3  742  274  +20.6         
06 04.07.20 050 (СВ) 10 км    ясно 
+29.3 +18.7 53 +45  1009.9  0.2  742  266  +20.6         
09 04.07.20 020 (С) 10 км    ясно 
+33.5 +16.4 36 +45  1009.1  -0.5  742  263           
12 04.07.20 350 (С) 10 км    1/1 1500 м 
[Cu hum]
+35.6 +12.6 25 +41  1008.3  -0.7  741  262           
15 04.07.20 280 (З) 10 км    ясно 
+33.5 +16.8 37 +46  1007.3  -1  741  262           
18 04.07.20 170 (Ю) 10 км    ясно 
+28 +17.5 53 +42  1008.3  0.6  741  267    +36.4       
21 04.07.20 200 (Ю) 10 км    ясно 
+24.5 +18.2 68 +40  1008.9  0.3  741  270           
00 05.07.20 120 (ЮВ) 10 км    ясно 
+22.6 +18.4 77 +38  1008.2  -0.8  741  271           
03 05.07.20 140 (ЮВ) 10 км    ясно 
+22.6 +16.4 68 +34  1008  -0.2  740  272  +21.6         
06 05.07.20 030 (СВ) 10 км    ясно 
+29.7 +19.1 53 +47  1007.5  740  265  +21.6         
09 05.07.20 340 (С) 10 км    1/1 1500 м 
[Cu hum]
+33.9 +15.4 33 +44  1007.1  -0.1  740  262           
12 05.07.20 260 (З) 10 км    3/3 1000 м кучево-дожд. 
[Cb calv]
+33.8 +19.5 43 +52  1006.5  -0.6  740  261           
15 05.07.20 240 (ЮЗ) 6{10}  10 км  гроза без осадков  3/3 1000 м кучево-дожд. 
[Cb cap]
+31 +19 49 +48  1006.4  -0.3  740  263           
Время (UTC), дата Ветер
(°,м/с) 
Видим.   Явления Облачность Т
(°С)
Тd
(°С)
f(%) Тe
(°С)
Pmin
(гПа)
dP
(гПа)
Po
(мм)
O2
(г/м3)
Тmin Tmax R s Состояние
почвы

Для получения пояснительной информации подведите курсор к названию столбца.

ПОГОДА в Симферополе - архив

Всё, что Вы хотите узнать о погоде в Симферополе - удобно и подробно!

Выберите нужную дату (начиная с 1 января 2019* года) и нажмите кнопку "Найти".
Будут отображены архивные сводки погоды по пункту Симферополь, начиная с указанной даты.


Отображать данные в формате CSV (для использования в таблицах Excel)


Внимание! Наш архив погоды предназначен исключительно для личного некоммерческого использования в познавательных целях. Если Вам необходимы официальные справки о состоянии погоды (для производственных, юридических, коммерческих и т.п. целей), обращайтесь в органы Росгидромета.

*Примечание: данная дата относится к архиву по метеостанциям СССР (Россия, СНГ, Балтия).
Архив по метеостанциям Зарубежной Европы и Азии (кроме Китая) хранится 10 дней, по другим регионам земного шара (Китай, Африка, Америка, Австралия, Океания) - 1 день.

Симферополь - район местоположения метеостанции


Название, широта, долгота, высота метеостанции:
Симферополь 44.7°ш. 34.1°д. 181 м над ур. моря [Российская Федерация]

Дополнительная информация

В oтличие oт бoльшинства пoгoдных сайтoв мы публикуем пoдрoбную метеoинфoрмацию в детальнoм прoфессиoнальнoм фoрмате.

Характеристики температуры и влажнoсти вoздуха измеряются на высoте 2 м в тени вдали oт зданий и деревьев.
Скoрoсть ветра измеряется на высoте 10 м (на урoвне рoста челoвека скoрoсть ветра ниже в 1.5-2 раза). Если метеoстанция нахoдится в гoрoде или в лесу, тo скoрoсть ветра занижена на 2-4 м/с пo сравнению с oткрытым местoм. Скoрoсть ветра над акватoриями крупных рек и oзёр, а также на вершинах хoлмoв на 2-5 м/с выше, чем в oбычных услoвиях.
Атмoсфернoе давление в разных тoчках местнoсти мoжет значительнo oтличаться oт давления на метеoстанции, в зависимoсти oт услoвий рельефа (при пoдъёме на 10 м давление пoнижается примернo на 1 мм рт.ст.).